Météo Nord-Pas-de-Calais   La météo au plus près de chez vous

Station météorologique

Observations météo à Tregunc (29293)

29293001 25 m Dernier relevé à 15:54
20.1°C
Humidité 65 % Vent 14.8 km/h

Journée consultée

Mardi 1 Septembre 2026

Synthèse de la journée

Périodes de référence en UTC

Température maximale

21.1°C

à 14:18

06h 06h

Température minimale

10.2°C

à 08:00

18h 18h

Rafale maximale

25 km/h

à 15:06

00h 00h

Précipitations

0 mm

Cumul quotidien

06h 06h

Graphiques de la journée

Heure locale Réduire

Données détaillées

Relevés météo

Pas de 6 minutes Afficher les relevés infra-horaires
Relevés météo détaillés à Tregunc pour le Mardi 1 Septembre 2026
Heure Température °C Point de rosée °C Humidité % Vent moyen (raf.), km/h Précipitations mm
15:54 20.1 °C 13.8 °C 67 % 15 km/h (22 km/h) 0 mm0 mm
15:48 20.1 °C 13.5 °C 66 % 15 km/h (21 km/h) 0 mm0 mm
15:42 19.8 °C 13.5 °C 67 % 14 km/h (21 km/h) 0 mm0 mm
15:36 20.1 °C 13.1 °C 64 % 15 km/h (22 km/h) 0 mm0 mm
15:30 19.9 °C 13.6 °C 67 % 15 km/h (22 km/h) 0 mm0 mm
15:24 20 °C 13.7 °C 67 % 15 km/h (22 km/h) 0 mm0 mm
15:18 20.2 °C 13.9 °C 67 % 16 km/h (24 km/h) 0 mm0 mm
15:12 20.5 °C 13.5 °C 64 % 16 km/h (24 km/h) 0 mm0 mm
15:06 20.3 °C 13.5 °C 65 % 15 km/h (24 km/h) 0 mm0 mm
15:00 20.7 °C 13.9 °C 65 % 14 km/h (23 km/h) 0 mm0 mm
14:54 20.7 °C 13.9 °C 65 % 15 km/h (24 km/h) 0 mm0 mm
14:48 20.7 °C 13.9 °C 65 % 14 km/h (24 km/h) 0 mm0 mm
14:42 20.2 °C 13.6 °C 66 % 14 km/h (21 km/h) 0 mm0 mm
14:36 20.4 °C 13.6 °C 65 % 15 km/h (22 km/h) 0 mm0 mm
14:30 20.4 °C 13.6 °C 65 % 14 km/h (22 km/h) 0 mm0 mm
14:24 20.4 °C 12.4 °C 60 % 13 km/h (23 km/h) 0 mm0 mm
14:18 21.1 °C 14.3 °C 65 % 14 km/h (21 km/h) 0 mm0 mm
14:12 20.6 °C 13.8 °C 65 % 13 km/h (20 km/h) 0 mm0 mm
14:06 20.5 °C 13.5 °C 64 % 13 km/h (19 km/h) 0 mm0 mm
14:00 20.5 °C 13.7 °C 65 % 14 km/h (23 km/h) 0 mm0 mm
13:54 20.6 °C 13.8 °C 65 % 14 km/h (23 km/h) 0 mm0 mm
13:48 20.8 °C 13.5 °C 63 % 12 km/h (18 km/h) 0 mm0 mm
13:42 20.4 °C 13.6 °C 65 % 13 km/h (19 km/h) 0 mm0 mm
13:36 20 °C 13.5 °C 66 % 14 km/h (21 km/h) 0 mm0 mm
13:30 19.5 °C 13.2 °C 67 % 14 km/h (22 km/h) 0 mm0 mm
13:24 19.8 °C 13.5 °C 67 % 13 km/h (20 km/h) 0 mm0 mm
13:18 20.5 °C 14.4 °C 68 % 13 km/h (21 km/h) 0 mm0 mm
13:12 20.1 °C 13.8 °C 67 % 14 km/h (21 km/h) 0 mm0 mm
13:06 19.8 °C 13.3 °C 66 % 13 km/h (20 km/h) 0 mm0 mm
13:00 19.9 °C 13.4 °C 66 % 13 km/h (18 km/h) 0 mm0 mm
12:54 20 °C 13.9 °C 68 % 13 km/h (18 km/h) 0 mm0 mm
12:48 20 °C 13 °C 64 % 12 km/h (20 km/h) 0 mm0 mm
12:42 20.2 °C 13.2 °C 64 % 13 km/h (18 km/h) 0 mm0 mm
12:36 20 °C 13.2 °C 65 % 12 km/h (18 km/h) 0 mm0 mm
12:30 20.2 °C 13.2 °C 64 % 11 km/h (17 km/h) 0 mm0 mm
12:24 20 °C 13 °C 64 % 11 km/h (18 km/h) 0 mm0 mm
12:18 19.8 °C 12.8 °C 64 % 11 km/h (18 km/h) 0 mm0 mm
12:12 19.6 °C 13.1 °C 66 % 10 km/h (17 km/h) 0 mm0 mm
12:06 19.8 °C 13.7 °C 68 % 10 km/h (16 km/h) 0 mm0 mm
12:00 19.8 °C 13 °C 65 % 9 km/h (14 km/h) 0 mm0 mm
11:54 19.8 °C 13 °C 65 % 10 km/h (15 km/h) 0 mm0 mm
11:48 19.4 °C 12.9 °C 66 % 10 km/h (15 km/h) 0 mm0 mm
11:42 19.6 °C 13.1 °C 66 % 9 km/h (14 km/h) 0 mm0 mm
11:36 19.1 °C 13.1 °C 68 % 9 km/h (15 km/h) 0 mm0 mm
11:30 19.7 °C 13.2 °C 66 % 8 km/h (14 km/h) 0 mm0 mm
11:24 19.7 °C 13.2 °C 66 % 7 km/h (13 km/h) 0 mm0 mm
11:18 19.3 °C 13.5 °C 69 % 7 km/h (13 km/h) 0 mm0 mm
11:12 18.9 °C 13.5 °C 71 % 5 km/h (11 km/h) 0 mm0 mm
11:06 18.2 °C 13.3 °C 73 % 5 km/h (10 km/h) 0 mm0 mm
11:00 18.2 °C 13.1 °C 72 % 5 km/h (10 km/h) 0 mm0 mm
10:54 18.8 °C 12.5 °C 67 % 4 km/h (8 km/h) 0 mm0 mm
10:48 18.8 °C 12.8 °C 68 % 4 km/h (8 km/h) 0 mm0 mm
10:42 18.8 °C 13 °C 69 % 3 km/h (7 km/h) 0 mm0 mm
10:36 18.5 °C 12.7 °C 69 % 4 km/h (7 km/h) 0 mm0 mm
10:30 18.5 °C 12.9 °C 70 % 3 km/h (7 km/h) 0 mm0 mm
10:24 17.9 °C 12.6 °C 71 % 3 km/h (7 km/h) 0 mm0 mm
10:18 18.1 °C 13 °C 72 % 2 km/h (5 km/h) 0 mm0 mm
10:12 17.7 °C 12.6 °C 72 % 2 km/h (6 km/h) 0 mm0 mm
10:06 17.4 °C 12.9 °C 75 % 2 km/h (6 km/h) 0 mm0 mm
10:00 17.2 °C 12.7 °C 75 % 0 km/h (4 km/h) 0 mm0 mm
09:54 16.8 °C 12.5 °C 76 % 3 km/h (6 km/h) 0 mm0 mm
09:48 16.4 °C 12.7 °C 79 % 3 km/h (6 km/h) 0 mm0 mm
09:42 15.8 °C 12.7 °C 82 % 4 km/h (6 km/h) 0 mm0 mm
09:36 15.6 °C 12.9 °C 84 % 3 km/h (6 km/h) 0 mm0 mm
09:30 15.1 °C 13 °C 87 % 0 km/h (4 km/h) 0 mm0 mm
09:24 14.7 °C 12.7 °C 88 % 2 km/h (5 km/h) 0 mm0 mm
09:18 14.3 °C 12.3 °C 88 % 3 km/h (5 km/h) 0 mm0 mm
09:12 14 °C 12 °C 88 % 3 km/h (5 km/h) 0 mm0 mm
09:06 14 °C 12.4 °C 90 % 3 km/h (5 km/h) 0 mm0 mm
09:00 13.9 °C 12.5 °C 91 % 3 km/h (6 km/h) 0 mm0 mm
08:54 13.6 °C 12.7 °C 94 % 4 km/h (6 km/h) 0 mm0 mm
08:48 13.1 °C 12.2 °C 94 % 4 km/h (6 km/h) 0 mm0 mm
08:42 13 °C 12.2 °C 95 % 4 km/h (8 km/h) 0 mm0 mm
08:36 12.8 °C 12.3 °C 97 % 5 km/h (8 km/h) 0 mm0 mm
08:30 12.6 °C 12.1 °C 97 % 5 km/h (7 km/h) 0 mm0 mm
08:24 12.5 °C 12.2 °C 98 % 4 km/h (8 km/h) 0 mm0 mm
08:18 12.1 °C 11.8 °C 98 % 4 km/h (8 km/h) 0 mm0 mm
08:12 11.4 °C 11.1 °C 98 % 5 km/h (7 km/h) 0 mm0 mm
08:06 11.2 °C 10.9 °C 98 % 6 km/h (9 km/h) 0 mm0 mm
08:00 11.2 °C 10.9 °C 98 % 6 km/h (9 km/h) 0 mm0 mm
07:54 10.9 °C 10.6 °C 98 % 3 km/h (6 km/h) 0 mm0 mm
07:48 10.6 °C 10.3 °C 98 % 2 km/h (3 km/h) 0 mm0 mm
07:42 10.7 °C 10.2 °C 97 % 3 km/h (4 km/h) 0 mm0 mm
07:36 10.8 °C 10.5 °C 98 % 3 km/h (6 km/h) 0 mm0 mm
07:30 10.8 °C 10.5 °C 98 % 5 km/h (8 km/h) 0 mm0 mm
07:24 10.5 °C 10.2 °C 98 % 6 km/h (8 km/h) 0 mm0 mm
07:18 10.3 °C 9.8 °C 97 % 5 km/h (8 km/h) 0 mm0 mm
07:12 10.3 °C 9.8 °C 97 % 4 km/h (6 km/h) 0 mm0 mm
07:06 10.6 °C 10.1 °C 97 % 2 km/h (4 km/h) 0 mm0 mm
07:00 10.6 °C 10.1 °C 97 % 3 km/h (5 km/h) 0 mm0 mm
06:54 10.5 °C 10 °C 97 % 4 km/h (6 km/h) 0 mm0 mm
06:48 10.6 °C 10.1 °C 97 % 5 km/h (6 km/h) 0 mm0 mm
06:42 10.6 °C 10.1 °C 97 % 4 km/h (6 km/h) 0 mm0 mm
06:36 10.7 °C 10.2 °C 97 % 4 km/h (6 km/h) 0 mm0 mm
06:30 10.6 °C 10 °C 96 % 3 km/h (6 km/h) 0 mm0 mm
06:24 10.9 °C 10.4 °C 97 % 2 km/h (5 km/h) 0 mm0 mm
06:18 10.9 °C 10.4 °C 97 % 2 km/h (5 km/h) 0 mm0 mm
06:12 11.2 °C 10.7 °C 97 % 2 km/h (3 km/h) 0 mm0 mm
06:06 11 °C 10.5 °C 97 % 0 km/h (3 km/h) 0 mm0 mm
06:00 11.2 °C 10.7 °C 97 % 0 km/h (3 km/h) 0 mm0 mm
05:54 11.2 °C 10.7 °C 97 % 2 km/h (4 km/h) 0 mm0 mm
05:48 11.2 °C 10.7 °C 97 % 4 km/h (6 km/h) 0 mm0 mm
05:42 11.3 °C 10.8 °C 97 % 4 km/h (6 km/h) 0 mm0 mm
05:36 11.3 °C 10.8 °C 97 % 0 km/h (5 km/h) 0 mm0 mm
05:30 11.3 °C 10.8 °C 97 % 0 km/h (0 km/h) 0 mm0 mm
05:24 11.2 °C 10.7 °C 97 % 0 km/h (3 km/h) 0 mm0 mm
05:18 11.2 °C 10.7 °C 97 % 0 km/h (3 km/h) 0 mm0 mm
05:12 11.2 °C 10.7 °C 97 % 0 km/h (3 km/h) 0 mm0 mm
05:06 11.2 °C 10.7 °C 97 % 0 km/h (3 km/h) 0 mm0 mm
05:00 11.2 °C 10.7 °C 97 % 0 km/h (3 km/h) 0 mm0 mm
04:54 11.3 °C 10.8 °C 97 % 2 km/h (3 km/h) 0 mm0 mm
04:48 11.2 °C 10.7 °C 97 % 0 km/h (3 km/h) 0 mm0 mm
04:42 11.3 °C 10.8 °C 97 % 0 km/h (3 km/h) 0 mm0 mm
04:36 11.4 °C 10.9 °C 97 % 2 km/h (4 km/h) 0 mm0 mm
04:30 11.2 °C 10.6 °C 96 % 3 km/h (5 km/h) 0 mm0 mm
04:24 11.3 °C 10.7 °C 96 % 3 km/h (5 km/h) 0 mm0 mm
04:18 11.4 °C 10.9 °C 97 % 3 km/h (5 km/h) 0 mm0 mm
04:12 11.4 °C 10.9 °C 97 % 2 km/h (4 km/h) 0 mm0 mm
04:06 11.4 °C 10.9 °C 97 % 2 km/h (5 km/h) 0 mm0 mm
04:00 11.5 °C 10.9 °C 96 % 3 km/h (5 km/h) 0 mm0 mm
03:54 11.6 °C 11.1 °C 97 % 4 km/h (6 km/h) 0 mm0 mm
03:48 11.5 °C 10.9 °C 96 % 4 km/h (6 km/h) 0 mm0 mm
03:42 11.4 °C 10.8 °C 96 % 3 km/h (5 km/h) 0 mm0 mm
03:36 11.7 °C 11.1 °C 96 % 0 km/h (4 km/h) 0 mm0 mm
03:30 11.7 °C 11.1 °C 96 % 0 km/h (3 km/h) 0 mm0 mm
03:24 11.7 °C 11.1 °C 96 % 2 km/h (4 km/h) 0 mm0 mm
03:18 11.7 °C 11.1 °C 96 % 4 km/h (5 km/h) 0 mm0 mm
03:12 11.8 °C 11.2 °C 96 % 3 km/h (5 km/h) 0 mm0 mm
03:06 11.8 °C 11.2 °C 96 % 0 km/h (4 km/h) 0 mm0 mm
03:00 11.8 °C 11.2 °C 96 % 0 km/h (0 km/h) 0 mm0 mm
02:54 11.8 °C 11 °C 95 % 0 km/h (0 km/h) 0 mm0 mm
02:48 11.9 °C 11.1 °C 95 % 0 km/h (2 km/h) 0 mm0 mm
02:42 11.9 °C 11.1 °C 95 % 0 km/h (3 km/h) 0 mm0 mm
02:36 12 °C 11.2 °C 95 % 2 km/h (3 km/h) 0 mm0 mm
02:30 12.2 °C 11.3 °C 94 % 0 km/h (3 km/h) 0 mm0 mm
02:24 12.3 °C 11.4 °C 94 % 0 km/h (2 km/h) 0 mm0 mm
02:18 12.3 °C 11.4 °C 94 % 0 km/h (5 km/h) 0 mm0 mm
02:12 12.5 °C 11.4 °C 93 % 3 km/h (5 km/h) 0 mm0 mm
02:06 12.7 °C 11.8 °C 94 % 2 km/h (5 km/h) 0 mm0 mm
02:00 12.8 °C 11.7 °C 93 % 0 km/h (4 km/h) 0 mm0 mm
01:54 12.8 °C 11.5 °C 92 % 0 km/h (0 km/h) 0 mm0 mm
01:48 12.9 °C 11.6 °C 92 % 0 km/h (4 km/h) 0 mm0 mm
01:42 13 °C 11.7 °C 92 % 0 km/h (4 km/h) 0 mm0 mm
01:36 13.1 °C 11.7 °C 91 % 2 km/h (4 km/h) 0 mm0 mm
01:30 13.3 °C 11.9 °C 91 % 3 km/h (4 km/h) 0 mm0 mm
01:24 13.6 °C 12.2 °C 91 % 3 km/h (4 km/h) 0 mm0 mm
01:18 13.9 °C 12.5 °C 91 % 3 km/h (5 km/h) 0 mm0 mm
01:12 13.7 °C 12.3 °C 91 % 3 km/h (5 km/h) 0 mm0 mm
01:06 13.9 °C 12.3 °C 90 % 2 km/h (4 km/h) 0 mm0 mm
01:00 14 °C 12 °C 88 % 2 km/h (3 km/h) 0 mm0 mm
00:54 14 °C 11.7 °C 86 % 0 km/h (3 km/h) 0 mm0 mm
00:48 14.3 °C 12 °C 86 % 2 km/h (5 km/h) 0 mm0 mm
00:42 14.7 °C 12.2 °C 85 % 3 km/h (5 km/h) 0 mm0 mm
00:36 14.9 °C 12.4 °C 85 % 4 km/h (6 km/h) 0 mm0 mm
00:30 15.1 °C 12.6 °C 85 % 4 km/h (6 km/h) 0 mm0 mm
00:24 15.2 °C 12.7 °C 85 % 4 km/h (6 km/h) 0 mm0 mm
00:18 15.3 °C 12.6 °C 84 % 4 km/h (7 km/h) 0 mm0 mm
00:12 15.5 °C 12.8 °C 84 % 4 km/h (7 km/h) 0 mm0 mm
00:06 15.5 °C 12.6 °C 83 % 4 km/h (6 km/h) 0 mm0 mm
00:00 15.6 °C 12.7 °C 83 % 4 km/h (7 km/h) 0 mm0 mm

Données via Météo-France

Relevés météo à Tregunc

Cette page rassemble les observations de la station de Tregunc : température, humidité, vent, précipitations et pression atmosphérique. Les graphiques facilitent le suivi de la journée, tandis que le tableau donne accès aux mesures horaires et infra-horaires disponibles.

Pour replacer ces mesures dans leur contexte, consultez la climatologie de Tregunc ainsi que ses normales et records. Retrouvez aussi la carte des observations météo en temps réel.